Date String (YYYY-MM-DD hh:mm:ss) UTC,Instrument flags,absolute air pressure of the measurement (hPa),sample flow rate (lpm),inlet stack bypass flow (lpm),air temperature of the measurement (°C),ambient temperature measured by the external sensor (°C),aerosol sample conditioner tube jacket temperature (°C),OPC LED temperature (°C),internal box temperature (°C),relative humidity of the measurement (%),span deviation,mass concentration of particles derived from Lorenz-Mie calculation of OPC scattering (μg/m³),mass concentration of particles derived from Lorenz-Mie calculation of OPC scattering (μg/m³),mass concentration of particles derived from Lorenz-Mie calculation of OPC scattering (μg/m³)
DateTimeUTC,F1_M11,P_M11,Q1_M11,Q2_M11,T1_M11,T2_M11,T3_M11,T4_M11,T5_M11,U1_M11,ZSPAN_M11,X0_M11,X2_M11,X1_M11
2023-06-30 20:00:00,SystemResetWarning,0834.4,5.00,000.00,029.5,028.0,000.0,038.0,031.1,32.7,0000.0,0010.24,0004.40,0003.64
2023-06-30 20:01:00,SystemResetWarning,0834.4,5.00,000.00,029.5,028.2,000.0,038.0,031.2,32.2,0000.0,0011.79,0004.44,0003.66
2023-06-30 20:02:00,SystemResetWarning,0834.4,5.00,000.00,029.6,028.3,000.0,038.0,031.2,32.3,0000.0,0011.38,0004.46,0003.67
2023-06-30 20:03:00,SystemResetWarning,0834.5,5.00,000.00,029.6,028.4,000.0,038.1,031.2,32.4,0000.0,0011.32,0004.44,0003.68
2023-06-30 20:04:00,SystemResetWarning,0834.5,5.00,000.00,029.6,028.3,000.0,038.1,031.3,32.1,0000.0,0011.18,0004.47,0003.69
2023-06-30 20:05:00,SystemResetWarning,0834.5,4.98,000.00,029.6,027.0,000.0,038.0,031.1,31.7,0000.0,0011.47,0004.49,0003.69
2023-06-30 20:06:00,SystemResetWarning,0834.5,5.00,000.00,029.6,025.9,000.0,037.9,030.9,32.4,0000.0,0012.21,0004.49,0003.69
2023-06-30 20:07:00,SystemResetWarning,0834.5,5.01,000.00,029.5,025.7,000.0,037.9,030.7,33.0,0000.0,0012.19,0004.48,0003.69
2023-06-30 20:08:00,SystemResetWarning,0834.5,5.01,000.00,029.4,026.0,000.0,037.9,030.6,32.8,0000.0,0012.35,0004.46,0003.67
2023-06-30 20:09:00,SystemResetWarning,0834.4,4.98,000.00,029.3,026.4,000.0,037.9,030.7,33.0,0000.0,0012.35,0004.44,0003.66
2023-06-30 20:10:00,SystemResetWarning,0834.3,5.01,000.00,029.3,026.7,000.0,037.9,030.8,32.1,0000.0,0012.23,0004.40,0003.64
2023-06-30 20:11:00,SystemResetWarning,0834.3,5.01,000.00,029.4,027.1,000.0,037.9,030.9,33.3,0000.0,0012.01,0004.35,0003.61
2023-06-30 20:12:00,SystemResetWarning,0834.3,5.00,000.00,029.4,027.4,000.0,037.9,030.9,32.4,0000.0,0010.24,0004.28,0003.56
2023-06-30 20:13:00,SystemResetWarning,0834.3,4.99,000.00,029.4,027.6,000.0,037.9,031.0,31.5,0000.0,0010.70,0004.23,0003.52
2023-06-30 20:14:00,SystemResetWarning,0834.3,5.00,000.00,029.4,027.8,000.0,037.9,031.1,31.2,0000.0,0010.74,0004.23,0003.48
2023-06-30 20:15:00,SystemResetWarning,0834.4,5.01,000.00,029.5,028.0,000.0,038.0,031.1,31.1,0000.0,0010.70,0004.16,0003.45
2023-06-30 20:16:00,SystemResetWarning,0834.3,5.01,000.00,029.5,028.1,000.0,038.0,031.1,29.9,0000.0,0010.62,0004.09,0003.41
2023-06-30 20:17:00,SystemResetWarning,0834.3,5.00,000.00,029.5,028.3,000.0,038.0,031.2,29.9,0000.0,0009.86,0004.02,0003.37
2023-06-30 20:18:00,SystemResetWarning,0834.4,5.00,000.00,029.6,028.4,000.0,038.0,031.2,27.5,0000.0,0009.68,0003.95,0003.32
2023-06-30 20:19:00,SystemResetWarning,0834.4,5.00,000.00,029.6,028.5,000.0,038.0,031.3,25.4,0000.0,0009.27,0003.85,0003.26
2023-06-30 20:20:00,SystemResetWarning,0834.2,4.98,000.00,029.6,027.8,000.0,038.0,031.2,24.3,0000.0,0009.31,0003.74,0003.18
2023-06-30 20:21:00,SystemResetWarning,0834.2,5.00,000.00,029.6,026.1,000.0,037.9,031.0,25.9,0000.0,0009.27,0003.66,0003.11
2023-06-30 20:22:00,SystemResetWarning,0834.2,5.00,000.00,029.5,025.6,000.0,037.8,030.8,24.5,0000.0,0009.22,0003.59,0003.01
2023-06-30 20:23:00,SystemResetWarning,0834.1,5.01,000.00,029.4,025.7,000.0,037.8,030.6,24.9,0000.0,0009.03,0003.53,0002.92
2023-06-30 20:24:00,SystemResetWarning,0834.1,5.01,000.00,029.3,026.1,000.0,037.9,030.6,25.5,0000.0,0008.20,0003.42,0002.80
2023-06-30 20:25:00,SystemResetWarning,0834.1,4.99,000.00,029.3,026.5,000.0,037.9,030.7,24.9,0000.0,0007.53,0003.32,0002.70
2023-06-30 20:26:00,SystemResetWarning,0834.0,5.00,000.00,029.3,026.9,000.0,037.9,030.8,25.0,0000.0,0007.06,0003.24,0002.58
2023-06-30 20:27:00,SystemResetWarning,0834.0,5.01,000.00,029.3,027.2,000.0,037.9,030.9,25.3,0000.0,0006.19,0003.16,0002.49
2023-06-30 20:28:00,SystemResetWarning,0834.0,5.01,000.00,029.4,027.4,000.0,037.9,030.9,26.0,0000.0,0005.69,0003.07,0002.39
2023-06-30 20:29:00,SystemResetWarning,0834.0,5.00,000.00,029.4,027.7,000.0,037.9,031.0,26.5,0000.0,0005.53,0002.94,0002.32
2023-06-30 20:30:00,SystemResetWarning,0834.0,4.99,000.00,029.4,027.8,000.0,037.9,031.0,27.0,0000.0,0006.68,0002.94,0002.30
2023-06-30 20:31:00,SystemResetWarning,0834.0,4.99,000.00,029.4,028.0,000.0,037.9,031.1,27.6,0000.0,0006.71,0002.97,0002.32
2023-06-30 20:32:00,SystemResetWarning,0834.0,5.00,000.00,029.5,028.1,000.0,038.0,031.1,28.1,0000.0,0006.55,0002.98,0002.32
2023-06-30 20:33:00,SystemResetWarning,0834.1,5.01,000.00,029.5,028.2,000.0,038.0,031.2,28.3,0000.0,0006.85,0003.04,0002.34
2023-06-30 20:34:00,SystemResetWarning,0834.1,5.00,000.00,029.5,028.3,000.0,038.0,031.2,28.4,0000.0,0007.64,0003.06,0002.37
2023-06-30 20:35:00,SystemResetWarning,0834.2,5.00,000.00,029.6,028.4,000.0,038.0,031.2,28.6,0000.0,0008.02,0003.10,0002.40
2023-06-30 20:36:00,SystemResetWarning,0834.2,5.00,000.00,029.6,028.5,000.0,038.0,031.3,28.5,0000.0,0008.12,0003.12,0002.45
2023-06-30 20:37:00,SystemResetWarning,0834.3,5.00,000.00,029.6,028.6,000.0,038.1,031.3,28.4,0000.0,0008.53,0003.14,0002.49
2023-06-30 20:38:00,SystemResetWarning,0834.3,4.99,000.00,029.7,028.0,000.0,038.0,031.3,28.1,0000.0,0009.69,0003.17,0002.54
2023-06-30 20:39:00,SystemResetWarning,0834.2,5.00,000.00,029.6,026.2,000.0,037.9,031.1,28.3,0000.0,0009.74,0003.21,0002.59
2023-06-30 20:40:00,SystemResetWarning,0834.2,5.00,000.00,029.6,025.4,000.0,037.8,030.9,28.8,0000.0,0009.81,0003.25,0002.63
2023-06-30 20:41:00,SystemResetWarning,0834.1,5.01,000.00,029.4,025.6,000.0,037.9,030.6,29.4,0000.0,0010.39,0003.28,0002.65
2023-06-30 20:42:00,SystemResetWarning,0834.0,5.01,000.00,029.3,025.9,000.0,037.9,030.6,29.4,0000.0,0009.45,0003.26,0002.66
2023-06-30 20:43:00,SystemResetWarning,0834.0,4.99,000.00,029.3,026.3,000.0,037.9,030.7,29.6,0000.0,0009.76,0003.30,0002.68
2023-06-30 20:44:00,SystemResetWarning,0834.0,4.99,000.00,029.3,026.7,000.0,037.9,030.8,29.9,0000.0,0009.67,0003.28,0002.69
2023-06-30 20:45:00,SystemResetWarning,0834.0,5.00,000.00,029.3,027.0,000.0,037.9,030.8,29.9,0000.0,0009.34,0003.31,0002.70
2023-06-30 20:46:00,SystemResetWarning,0834.0,5.02,000.00,029.3,027.3,000.0,037.9,030.9,29.9,0000.0,0009.13,0003.34,0002.71
2023-06-30 20:47:00,SystemResetWarning,0834.1,5.00,000.00,029.3,027.5,000.0,037.9,030.9,30.1,0000.0,0009.18,0003.36,0002.72
2023-06-30 20:48:00,SystemResetWarning,0834.1,4.99,000.00,029.4,027.7,000.0,037.9,031.0,30.2,0000.0,0008.87,0003.40,0002.74
2023-06-30 20:49:00,SystemResetWarning,0834.1,5.00,000.00,029.4,027.8,000.0,037.9,031.0,30.3,0000.0,0008.03,0003.46,0002.76
2023-06-30 20:50:00,SystemResetWarning,0834.2,5.00,000.00,029.4,028.0,000.0,037.9,031.0,30.9,0000.0,0008.40,0003.52,0002.77
2023-06-30 20:51:00,SystemResetWarning,0834.2,5.01,000.00,029.4,028.1,000.0,038.0,031.1,30.6,0000.0,0008.80,0003.55,0002.80
2023-06-30 20:52:00,SystemResetWarning,0834.2,5.01,000.00,029.5,028.2,000.0,038.0,031.1,30.5,0000.0,0008.56,0003.63,0002.81
2023-06-30 20:53:00,SystemResetWarning,0834.2,4.99,000.00,029.5,028.3,000.0,038.0,031.1,30.1,0000.0,0008.60,0003.66,0002.83
2023-06-30 20:54:00,SystemResetWarning,0834.2,4.99,000.00,029.5,028.4,000.0,038.0,031.2,29.8,0000.0,0008.41,0003.68,0002.84
2023-06-30 20:55:00,SystemResetWarning,0834.2,4.99,000.00,029.6,028.4,000.0,038.0,031.2,30.2,0000.0,0008.66,0003.76,0002.88
2023-06-30 20:56:00,SystemResetWarning,0834.1,5.00,000.00,029.6,028.5,000.0,038.0,031.3,29.8,0000.0,0008.68,0003.79,0002.91
2023-06-30 20:57:00,SystemResetWarning,0834.1,4.99,000.00,029.6,028.6,000.0,038.1,031.3,29.6,0000.0,0008.72,0003.82,0002.95
2023-06-30 20:58:00,SystemResetWarning,0834.1,4.99,000.00,029.7,027.6,000.0,038.0,031.2,29.3,0000.0,0009.63,0003.87,0002.98
2023-06-30 20:59:00,SystemResetWarning,0834.1,5.01,000.00,029.6,026.0,000.0,037.9,031.0,29.6,0000.0,0010.10,0003.87,0002.99
